Location: Unspecified
(38.7273°N, 77.0677°W)
Time: 23:37:59
(UTC-04:00)

ISS - Pass Details

Date: 24 June 2021
Orbit: 419 x 421 km, 51.6° (Epoch: 03 August)

Event Time Altitude Azimuth Distance (km) Brightness Sun altitude
Exits shadow 05:08:01 - 199° (SSW) 1,900 -0.9 -6.7°
Reaches altitude 10° 05:09:08 10° 191° (SSW) 1,491 -1.4 -6.5°
Maximum altitude 05:11:59 26° 133° (SE) 860 -2.0 -6.1°
Drops below altitude 10° 05:14:51 10° 74° (ENE) 1,498 0.4 -5.6°
Sets 05:17:09 0° 62° (ENE) 2,365 2.5 -5.3°
